Regional Weather Roundup
Issued by NWS Goodland, KS

Home | Current Version | Previous Version | Graphics & Text | Print | Product List | Glossary On
Versions: 1 2 3 4 5 6 7 8 9 10 11 12 13 14 15 16 17 18 19 20 21 22 23 24 25 26 27 28 29 30 31 32 33 34 35 36 37 38 39 40 41 42 43 44 45 46 47 48 49 50
000
ASUS43 KGLD 272308
RWRGLD

GOODLAND FORECAST AREA HOURLY WEATHER ROUNDUP
NATIONAL WEATHER SERVICE GOODLAND KS
500 PM MDT MON APR 27 2015

...OFFICIAL OBSERVATIONS...

CITY           SKY/WX    TMP DP  RH WIND       PRES   REMARKS
GOODLAND KS    PTSUNNY   58  31  35 NE15G24   30.18S
HILL CITY KS   MOSUNNY   62  32  32 NE18G25   30.14S
IMPERIAL NEB   PTSUNNY   60  32  34 NE8       30.19S
MCCOOK NEB     PTSUNNY   66  33  29 NE12      30.15F
AKRON CO       CLOUDY    54  36  50 N13G18    30.24S
BURLINGTON CO  MOSUNNY   57  30  35 NE23      30.19S
LIMON CO       CLOUDY    49  33  54 N18       30.24R
$$

...UNOFFICIAL OBSERVATIONS...

CITY           SKY/WX    TMP DP  RH WIND       PRES   REMARKS
COLBY KS       SUNNY     61  34  36 NE20G25   30.17S
GOVE KS          N/A     61  32  33 MISG        N/A
LENORA KS        N/A     63  32  31 MISG        N/A
NORTON KS      SUNNY     63  28  27 NE14      30.13F
SHARON SPRINGS   N/A     58  38  48 N16G23      N/A
TRIBUNE KS     CLOUDY    57  39  51 N20G28    30.17S
KIT CARSON CO    N/A     55  34  45 MISG        N/A
YUMA CO          N/A     56  34  44 NE8G15      N/A
$$


USA.gov is the U.S. government's official web portal to all federal, state and local government web resources and services.